Newark Heath, OH

4:55 AM EDT on March 23, 2017 (GMT -0400)
Newark Heath

Weather History for KVTA - August, 2013

Change the Weather History Date:

Tuesday, August 20, 2013

  Actual Average Record
Temperature  
Mean Temperature 68 °F -  
Max Temperature 82 °F 80 °F 100 °F (1983)
Min Temperature 55 °F 59 °F 46 °F (1943)
Cooling Degree Days 4    
Growing Degree Days 18 (Base 50)    
Moisture  
Dew Point 58 °F    
Average Humidity 90    
Maximum Humidity 100    
Minimum Humidity 49    
Precipitation  
Precipitation 0.01 in - - ()
Sea Level Pressure  
Sea Level Pressure 30.14 in    
Wind  
Wind Speed 0 mph (South)    
Max Wind Speed 8 mph    
Max Gust Speed -    
Visibility 3 miles    
Events Fog    
Averages and records for this station are not official NWS values.
T = Trace of Precipitation, MM = Missing Value Source: NWS Daily Summary

Daily Weather History Graph

Daily Weather History Graph

Search for Another Location

Airport or City:

Trip Planner

Search our weather history database for the weather conditions in past years. The results will help you decide how hot, cold, wet, or windy it might be!

Date:

Astronomy

Aug. 20, 2013 Rise Set
Actual Time 6:46 AM EDT 8:19 PM EDT
Civil Twilight 6:17 AM EDT 8:47 PM EDT
Nautical Twilight 5:43 AM EDT 9:22 PM EDT
Astronomical Twilight 5:06 AM EDT 9:58 PM EDT
Moon 7:49 PM EDT (8/20) 6:14 AM EDT (8/20)
Length of Visible Light 14h 29m
Length of Day
13h 32m
Full, 100% of the Moon is Illuminated
Aug 20
Full
Aug 20
Full
Aug 28
Last Quarter
Sep 5
New
Sep 12
First Quarter

Hourly Weather History & Observations

Time (EDT) Temp. Heat Index Dew Point Humidity Pressure Visibility Wind Dir Wind Speed Gust Speed Precip Events Conditions
12:03 AM 60.8 °F - 60.8 °F 100% 30.13 in 1.5 mi Calm Calm - N/A   Clear
12:11 AM 60.8 °F - 59.0 °F 94% 30.13 in 0.5 mi Calm Calm - N/A Fog Fog
12:19 AM 60.8 °F - 59.0 °F 94% 30.13 in 0.8 mi Calm Calm - N/A   Mist
12:30 AM 59.0 °F - 59.0 °F 100% 30.13 in 1.2 mi Calm Calm - N/A   Partly Cloudy
12:38 AM 60.8 °F - 57.2 °F 88% 30.13 in 2.5 mi Calm Calm - N/A   Clear
12:42 AM 60.8 °F - 59.0 °F 94% 30.13 in 0.8 mi Calm Calm - N/A   Mist
12:54 AM 60.1 °F - 59.0 °F 96% 30.12 in 0.5 mi Calm Calm - 0.01 in Fog Fog
1:01 AM 59.0 °F - 57.2 °F 94% 30.13 in 1.2 mi Calm Calm - N/A   Partly Cloudy
1:04 AM 59.0 °F - 57.2 °F 94% 30.13 in 3.0 mi Calm Calm - N/A   Partly Cloudy
1:07 AM 59.0 °F - 57.2 °F 94% 30.13 in 1.8 mi Calm Calm - N/A   Partly Cloudy
1:11 AM 60.8 °F - 59.0 °F 94% 30.13 in 0.8 mi Calm Calm - N/A   Mist
1:15 AM 60.8 °F - 59.0 °F 94% 30.13 in 0.8 mi Calm Calm - N/A   Clear
1:25 AM 59.0 °F - 59.0 °F 100% 30.13 in 1.2 mi Calm Calm - N/A   Clear
1:35 AM 60.8 °F - 59.0 °F 94% 30.13 in 0.5 mi Calm Calm - N/A Fog Fog
1:54 AM 59.0 °F - 57.9 °F 96% 30.12 in 0.5 mi Calm Calm - N/A Fog Fog
2:07 AM 57.2 °F - 57.2 °F 100% 30.13 in 0.2 mi Calm Calm - N/A Fog Fog
2:29 AM 57.2 °F - 57.2 °F 100% 30.13 in 0.8 mi Calm Calm - N/A   Mist
2:34 AM 59.0 °F - 57.2 °F 94% 30.13 in 2.0 mi Calm Calm - N/A   Overcast
2:44 AM 57.2 °F - 57.2 °F 100% 30.13 in 1.0 mi Calm Calm - N/A   Mist
2:48 AM 57.2 °F - 57.2 °F 100% 30.13 in 0.8 mi Calm Calm - N/A   Mist
2:54 AM 57.0 °F - 57.0 °F 100% 30.12 in 0.5 mi Calm Calm - N/A Fog Fog
3:04 AM 57.2 °F - 57.2 °F 100% 30.14 in 0.2 mi Calm Calm - N/A Fog Fog
3:11 AM 57.2 °F - 57.2 °F 100% 30.14 in 1.0 mi Calm Calm - N/A   Mist
3:14 AM 57.2 °F - 57.2 °F 100% 30.14 in 2.0 mi Calm Calm - N/A   Partly Cloudy
3:31 AM 57.2 °F - 55.4 °F 94% 30.14 in 0.8 mi Calm Calm - N/A   Clear
3:42 AM 57.2 °F - 55.4 °F 94% 30.14 in 0.5 mi Calm Calm - N/A Fog Fog
3:54 AM 57.0 °F - 55.9 °F 96% 30.13 in 0.5 mi Calm Calm - N/A Fog Fog
4:04 AM 57.2 °F - 55.4 °F 94% 30.14 in 2.0 mi Calm Calm - N/A   Scattered Clouds
4:11 AM 57.2 °F - 55.4 °F 94% 30.14 in 4.0 mi Calm Calm - N/A   Partly Cloudy
4:13 AM 55.4 °F - 55.4 °F 100% 30.14 in 1.8 mi Calm Calm - N/A   Partly Cloudy
4:18 AM 55.4 °F - 55.4 °F 100% 30.14 in 0.8 mi Calm Calm - N/A   Mist
4:30 AM 55.4 °F - 55.4 °F 100% 30.14 in 1.2 mi Calm Calm - N/A   Scattered Clouds
4:35 AM 55.4 °F - 55.4 °F 100% 30.14 in 0.8 mi Calm Calm - N/A   Mist
4:46 AM 55.4 °F - 55.4 °F 100% 30.14 in 0.2 mi Calm Calm - N/A Fog Fog
4:52 AM 57.2 °F - 55.4 °F 94% 30.14 in 1.0 mi Calm Calm - N/A   Mist
4:54 AM 57.0 °F - 55.9 °F 96% 30.13 in 2.5 mi Calm Calm - N/A   Mostly Cloudy
5:01 AM 55.4 °F - 55.4 °F 100% 30.14 in 0.8 mi Calm Calm - N/A   Mist
5:10 AM 55.4 °F - 55.4 °F 100% 30.14 in 0.2 mi Calm Calm - N/A Fog Fog
5:34 AM 55.4 °F - 55.4 °F 100% 30.15 in 0.5 mi Calm Calm - N/A Fog Fog
5:52 AM 55.4 °F - 55.4 °F 100% 30.15 in 0.2 mi Calm Calm - N/A Fog Fog
5:54 AM 55.9 °F - 55.0 °F 97% 30.14 in 0.2 mi Calm Calm - N/A Fog Fog
6:20 AM 55.4 °F - 55.4 °F 100% 30.16 in 1.0 mi Calm Calm - N/A   Mist
6:42 AM 55.4 °F - 55.4 °F 100% 30.17 in 0.5 mi Calm Calm - N/A Fog Fog
6:49 AM 57.2 °F - 55.4 °F 94% 30.17 in 0.2 mi Calm Calm - N/A Fog Fog
6:54 AM 55.9 °F - 55.0 °F 97% 30.16 in 0.2 mi Calm Calm - N/A Fog Fog
7:36 AM 57.2 °F - 55.4 °F 94% 30.18 in 0.5 mi Calm Calm - N/A Fog Fog
7:48 AM 57.2 °F - 57.2 °F 100% 30.18 in 1.2 mi Calm Calm - N/A   Scattered Clouds
7:54 AM 57.9 °F - 57.9 °F 100% 30.17 in 2.5 mi Calm Calm - N/A   Partly Cloudy
8:01 AM 59.0 °F - 57.2 °F 94% 30.18 in 3.0 mi Calm Calm - N/A   Clear
8:54 AM 64.9 °F - 62.1 °F 90% 30.19 in 6.0 mi Calm Calm - N/A   Clear
9:54 AM 70.0 °F - 64.9 °F 84% 30.19 in 7.0 mi Calm Calm - N/A   Clear
10:54 AM 75.9 °F - 66.0 °F 71% 30.19 in 10.0 mi Calm Calm - N/A   Clear
11:54 AM 79.0 °F - 64.0 °F 60% 30.20 in 10.0 mi Calm Calm - N/A   Clear
12:54 PM 80.1 °F 81.1 °F 61.0 °F 52% 30.18 in 10.0 mi SSW 3.5 mph - N/A   Clear
1:54 PM 81.0 °F 81.9 °F 62.1 °F 52% 30.17 in 10.0 mi Variable 6.9 mph - N/A   Mostly Cloudy
2:54 PM 82.0 °F 83.0 °F 62.1 °F 51% 30.15 in 10.0 mi SE 4.6 mph - N/A   Scattered Clouds
3:54 PM 81.0 °F 81.7 °F 61.0 °F 50% 30.14 in 10.0 mi SSW 8.1 mph - N/A   Scattered Clouds
4:54 PM 82.0 °F 82.7 °F 61.0 °F 49% 30.13 in 10.0 mi WSW 3.5 mph - N/A   Scattered Clouds
5:54 PM 81.0 °F 81.7 °F 61.0 °F 50% 30.13 in 10.0 mi SSE 4.6 mph - N/A   Clear
6:54 PM 80.1 °F 81.5 °F 63.0 °F 56% 30.12 in 10.0 mi SE 4.6 mph - N/A   Clear
7:54 PM 73.9 °F - 64.9 °F 73% 30.12 in 10.0 mi Calm Calm - N/A   Clear
8:54 PM 69.1 °F - 64.0 °F 84% 30.13 in 10.0 mi Calm Calm - N/A   Clear
9:54 PM 66.0 °F - 64.0 °F 93% 30.16 in 8.0 mi Calm Calm - N/A   Clear
10:54 PM 64.9 °F - 63.0 °F 93% 30.16 in 7.0 mi Calm Calm - N/A   Clear
11:54 PM 63.0 °F - 62.1 °F 97% 30.16 in 2.5 mi Calm Calm - N/A   Clear